This demonstration page uses our WeatherBlox Daily Observations layout. Learn more.

Left ArrowRight Arrow

39.01783, -85.05884

Hourly Observations for June 11, 2017

Temp ( °F °C ) Dew Point ( °F °C ) Humidity (%) Winds ( mph kmh ) Pressure ( in mb ) Visibility ( mi km ) Precip ( " mm )
12:52 am 00:52 Clear 67 19.4 59 15 76 76 S 7 11 30.02 1017 10 16 N/A
1:52 am 01:52 Clear 67 19.4 59 15 76 76 SSW 7 11 30.03 1017 10 16 N/A
2:52 am 02:52 Clear 66 18.9 59 15 78 78 SSW 6 9 30.04 1017 10 16 N/A
3:52 am 03:52 Clear 64 17.8 59 15 84 84 S 6 9 30.04 1017 10 16 N/A
4:52 am 04:52 Clear 63 17.2 59 15 87 87 S 5 7 30.06 1018 10 16 N/A
5:52 am 05:52 Clear 62 16.7 58 14.4 86 86 S 7 11 30.07 1018 10 16 N/A
6:52 am 06:52 Mostly Sunny 62 16.7 59 15 90 90 S 7 11 30.10 1019 10 16 N/A
7:52 am 07:52 Mostly Sunny 68 20 61 16.1 78 78 SSW 7 11 30.11 1020 10 16 N/A
8:52 am 08:52 Mostly Sunny 74 23.3 63 17.2 69 69 SSW 6 9 30.12 1020 10 16 N/A
9:52 am 09:52 Sunny 77 25 63 17.2 62 62 SW 7 11 30.12 1020 10 16 N/A
10:52 am 10:52 Sunny 81 27.2 63 17.2 54 54 SW 7 11 30.12 1020 10 16 N/A
11:52 am 11:52 Mostly Sunny 83 28.3 63 17.2 51 51 SSW 9 15 30.11 1020 10 16 N/A
12:52 pm 12:52 Partly Cloudy 83 28.3 63 17.2 51 51 SW 10 17 30.10 1019 10 16 N/A
1:52 pm 13:52 Partly Cloudy 86 30 63 17.2 46 46 SSW 14 22 30.09 1019 10 16 N/A
2:52 pm 14:52 Partly Cloudy 86 30 61 16.1 43 43 SSW 10 17 30.09 1019 10 16 N/A
3:52 pm 15:52 Partly Cloudy 85 29.4 61 16.1 45 45 SW 9 15 30.08 1019 10 16 N/A
4:52 pm 16:52 Mostly Sunny 86 30 60 15.6 42 42 SW 14 22 30.07 1018 10 16 N/A
5:52 pm 17:52 Mostly Sunny 86 30 61 16.1 43 43 SSW 12 19 30.06 1018 10 16 N/A
6:52 pm 18:52 Mostly Sunny 85 29.4 61 16.1 45 45 SSW 9 15 30.04 1017 10 16 N/A
7:52 pm 19:52 Mostly Sunny 82 27.8 62 16.7 51 51 S 9 15 30.04 1017 10 16 N/A
8:52 pm 20:52 Partly Cloudy 78 25.6 62 16.7 58 58 S 7 11 30.03 1017 10 16 N/A
9:52 pm 21:52 Mostly Clear 77 25 62 16.7 60 60 SSW 6 9 30.02 1017 10 16 N/A
10:52 pm 22:52 Mostly Clear 75 23.9 62 16.7 64 64 S 7 11 30.04 1017 10 16 N/A
11:52 pm 23:52 Mostly Clear 71 21.7 63 17.2 76 76 S 7 11 30.04 1017 10 16 N/A

Powered by AerisWeather